,,,PA_Meas_PMT16A,,PR_Meas_QMR101_102,,RH_Meas_QMH101,,SR_Meas_QMS101,,TA_Meas_QMH101,,GenWind,,GenWind,
date,time,status,PA,status,PR,status,RH,status,SR,status,TA,status,DirAvg,status,SpdAvg,
2010-12-03, 00:00:04,VALID,1001.89,VALID,0,INVALID,163.586,VALID,0.100563,VALID,25.6292,VALID,6,VALID,0.507031,
2010-12-03, 00:01:04,VALID,1001.9,VALID,0,INVALID,163.594,VALID,0.100563,VALID,25.6097,VALID,6,VALID,0.507031,
2010-12-03, 00:02:04,VALID,1001.91,VALID,0,INVALID,163.563,VALID,0,VALID,25.5902,VALID,6,VALID,0.470703,
2010-12-03, 00:03:04,VALID,1001.92,VALID,0,INVALID,163.571,VALID,0.100563,VALID,25.5688,VALID,6,VALID,0.552344,
2010-12-03, 00:04:04,VALID,1001.89,VALID,0,INVALID,163.578,VALID,0,VALID,25.6097,VALID,6,VALID,0.420703,
2010-12-03, 00:05:04,VALID,1001.92,VALID,0,INVALID,163.563,VALID,0,VALID,25.6097,VALID,6,VALID,0.423828,
2010-12-03, 00:06:04,VALID,1001.89,VALID,0,INVALID,163.556,VALID,0.100563,VALID,25.5902,VALID,6,VALID,0.3125,
2010-12-03, 00:07:04,VALID,1001.92,VALID,0,INVALID,163.578,VALID,0.100563,VALID,25.5883,VALID,6,VALID,0.203516,
2010-12-03, 00:08:04,VALID,1001.88,VALID,0,INVALID,163.578,VALID,0.100563,VALID,25.5883,VALID,6,VALID,0.348047,
2010-12-03, 00:09:04,VALID,1001.9,VALID,0,INVALID,163.556,VALID,0,VALID,25.5902,VALID,6,VALID,0.329297,
2010-12-03, 00:10:04,VALID,1001.86,VALID,0,INVALID,163.563,VALID,0,VALID,25.5921,VALID,6,VALID,0.509375,
2010-12-03, 00:11:04,VALID,1001.85,VALID,0,INVALID,163.571,VALID,0,VALID,25.5921,VALID,6,VALID,0.497656,
2010-12-03, 00:12:04,VALID,1001.84,VALID,0,INVALID,163.586,VALID,0,VALID,25.5727,VALID,6,VALID,0.320703,
2010-12-03, 00:13:04,VALID,1001.81,VALID,0,INVALID,163.586,VALID,0,VALID,25.5727,VALID,6,VALID,0.393359,
2010-12-03, 00:14:04,VALID,1001.8,VALID,0,INVALID,163.571,VALID,0,VALID,25.5707,VALID,6,VALID,0.321484,
2010-12-03, 00:15:04,VALID,1001.75,VALID,0,INVALID,163.571,VALID,0,VALID,25.5921,VALID,6,VALID,0.280469,
2010-12-03, 00:16:04,VALID,1001.73,VALID,0,INVALID,163.571,VALID,0,VALID,25.6116,VALID,6,VALID,0.182812,
2010-12-03, 00:17:04,VALID,1001.67,VALID,0,INVALID,163.563,VALID,0,VALID,25.5902,VALID,6,VALID,0.250391,
2010-12-03, 00:18:04,VALID,1001.64,VALID,0,INVALID,163.586,VALID,0,VALID,25.6097,VALID,6,VALID,0.235938,
2010-12-03, 00:19:04,VALID,1001.58,VALID,0,INVALID,163.578,VALID,0,VALID,25.6311,VALID,6,VALID,0.516797,
2010-12-03, 00:20:04,VALID,1001.56,VALID,0,INVALID,163.571,VALID,0,VALID,25.6506,VALID,6,VALID,0.534375,
2010-12-03, 00:21:04,VALID,1001.55,VALID,0,INVALID,163.578,VALID,0,VALID,25.6116,VALID,6,VALID,0.649609,
2010-12-03, 00:22:04,VALID,1001.53,VALID,0,INVALID,163.563,VALID,0,VALID,25.6116,VALID,6,VALID,0.584766,
2010-12-03, 00:23:05,VALID,1001.54,VALID,0,INVALID,163.571,VALID,0,VALID,25.5921,VALID,6,VALID,0.574609,
2010-12-03, 00:24:05,VALID,1001.51,VALID,0,INVALID,163.563,VALID,0,VALID,25.5707,VALID,6,VALID,0.423828,
2010-12-03, 00:25:05,VALID,1001.52,VALID,0,INVALID,163.571,VALID,0,VALID,25.5727,VALID,6,VALID,0.478125,
2010-12-03, 00:26:05,VALID,1001.47,VALID,0,INVALID,163.571,VALID,0,VALID,25.5532,VALID,6,VALID,0.413672,
2010-12-03, 00:27:05,VALID,1001.47,VALID,0,INVALID,163.563,VALID,0,VALID,25.5727,VALID,6,VALID,0.505469,
2010-12-03, 00:28:05,VALID,1001.46,VALID,0,INVALID,163.617,VALID,0,VALID,25.5318,VALID,6,VALID,0.512109,
2010-12-03, 00:29:05,VALID,1001.41,VALID,0,INVALID,163.54,VALID,0,VALID,25.5532,VALID,6,VALID,0.612109,
2010-12-03, 00:30:05,VALID,1001.39,VALID,0,INVALID,163.586,VALID,0,VALID,25.5532,VALID,6,VALID,0.658984,
2010-12-03, 00:31:05,VALID,1001.39,VALID,0,INVALID,163.563,VALID,0,VALID,25.5532,VALID,6,VALID,0.490234,
2010-12-03, 00:32:05,VALID,1001.36,VALID,0,INVALID,163.586,VALID,0,VALID,25.5532,VALID,6,VALID,0.398438,
2010-12-03, 00:33:05,VALID,1001.33,VALID,0,INVALID,163.571,VALID,0,VALID,25.5727,VALID,6,VALID,0.340625,
2010-12-03, 00:34:05,VALID,1001.33,VALID,0,INVALID,163.571,VALID,0,VALID,25.5532,VALID,6,VALID,0.438281,
2010-12-03, 00:35:05,VALID,1001.31,VALID,0,INVALID,163.601,VALID,0,VALID,25.5532,VALID,6,VALID,0.474219,
2010-12-03, 00:36:05,VALID,1001.31,VALID,0,INVALID,163.601,VALID,0,VALID,25.5532,VALID,6,VALID,0.419531,
2010-12-03, 00:37:05,VALID,1001.29,VALID,0,INVALID,163.578,VALID,0,VALID,25.5532,VALID,6,VALID,0.398047,
2010-12-03, 00:38:05,VALID,1001.25,VALID,0,INVALID,163.563,VALID,0,VALID,25.5532,VALID,6,VALID,0.404297,
2010-12-03, 00:39:05,VALID,1001.24,VALID,0,INVALID,163.54,VALID,0,VALID,25.5921,VALID,6,VALID,0.526563,
2010-12-03, 00:40:05,VALID,1001.22,VALID,0,INVALID,163.563,VALID,0,VALID,25.5707,VALID,6,VALID,0.549219,
2010-12-03, 00:41:05,VALID,1001.2,VALID,0,INVALID,163.571,VALID,0,VALID,25.5921,VALID,6,VALID,0.513672,
2010-12-03, 00:42:05,VALID,1001.17,VALID,0,INVALID,163.525,VALID,0,VALID,25.5902,VALID,6,VALID,0.555078,
2010-12-03, 00:43:05,VALID,1001.16,VALID,0,INVALID,163.594,VALID,0,VALID,25.5902,VALID,6,VALID,0.476563,
2010-12-03, 00:44:05,VALID,1001.15,VALID,0,INVALID,163.548,VALID,0,VALID,25.633,VALID,2,VALID,0.531641,
2010-12-03, 00:45:05,VALID,1001.11,VALID,0,INVALID,163.563,VALID,0,VALID,25.6311,VALID,2,VALID,0.728516,
2010-12-03, 00:46:05,VALID,1001.1,VALID,0,INVALID,163.571,VALID,0,VALID,25.6311,VALID,1,VALID,0.694531,
2010-12-03, 00:47:05,VALID,1001.06,VALID,0,INVALID,163.586,VALID,0,VALID,25.6116,VALID,1,VALID,0.775781,
2010-12-03, 00:48:05,VALID,1001.01,VALID,0,INVALID,163.594,VALID,0,VALID,25.6311,VALID,360,VALID,0.637891,
2010-12-03, 00:49:05,VALID,1000.98,VALID,0,INVALID,163.571,VALID,0,VALID,25.6311,VALID,360,VALID,0.738281,
2010-12-03, 00:50:05,VALID,1000.95,VALID,0,INVALID,163.586,VALID,0,VALID,25.6097,VALID,360,VALID,0.632813,
2010-12-03, 00:51:05,VALID,1000.9,VALID,0,INVALID,163.571,VALID,0,VALID,25.6506,VALID,360,VALID,0.637109,
2010-12-03, 00:52:05,VALID,1000.88,VALID,0,INVALID,163.563,VALID,0,VALID,25.6506,VALID,360,VALID,0.526563,
2010-12-03, 00:53:05,VALID,1000.83,VALID,0,INVALID,163.571,VALID,0,VALID,25.6486,VALID,360,VALID,0.461719,
2010-12-03, 00:54:05,VALID,1000.77,VALID,0,INVALID,163.578,VALID,0,VALID,25.6292,VALID,360,VALID,0.591797,
2010-12-03, 00:55:05,VALID,1000.77,VALID,0,INVALID,163.571,VALID,0,VALID,25.6292,VALID,351,VALID,0.713672,
2010-12-03, 00:56:05,VALID,1000.74,VALID,0,INVALID,163.563,VALID,0,VALID,25.6292,VALID,344,VALID,0.565234,
2010-12-03, 00:57:05,VALID,1000.72,VALID,0,INVALID,163.548,VALID,0,VALID,25.67,VALID,355,VALID,0.688672,
2010-12-03, 00:58:05,VALID,1000.71,VALID,0,INVALID,163.556,VALID,0,VALID,25.709,VALID,352,VALID,0.7375,
2010-12-03, 00:59:05,VALID,1000.66,VALID,0,INVALID,163.563,VALID,0,VALID,25.7285,VALID,343,VALID,0.732031,
2010-12-03, 01:00:05,VALID,1000.64,VALID,0,INVALID,163.563,VALID,0,VALID,25.7285,VALID,346,VALID,0.607422,
2010-12-03, 01:01:05,VALID,1000.62,VALID,0,INVALID,163.548,VALID,0,VALID,25.7265,VALID,346,VALID,0.577344,
2010-12-03, 01:02:05,VALID,1000.58,VALID,0,INVALID,163.54,VALID,0,VALID,25.746,VALID,346,VALID,0.464063,
2010-12-03, 01:03:05,VALID,1000.55,VALID,0,INVALID,163.533,VALID,0,VALID,25.8064,VALID,346,VALID,0.138281,
2010-12-03, 01:04:05,VALID,1000.55,VALID,0,INVALID,163.556,VALID,0,VALID,25.785,VALID,346,VALID,0.324609,
2010-12-03, 01:05:05,VALID,1000.54,VALID,0,INVALID,163.517,VALID,0,VALID,25.8044,VALID,346,VALID,0.240625,
2010-12-03, 01:06:05,VALID,1000.53,VALID,0,INVALID,163.548,VALID,0,VALID,25.785,VALID,345,VALID,0.371484,
2010-12-03, 01:07:05,VALID,1000.54,VALID,0,INVALID,163.548,VALID,0,VALID,25.8259,VALID,345,VALID,0.308594,
2010-12-03, 01:08:05,VALID,1000.56,VALID,0,INVALID,163.563,VALID,0,VALID,25.8239,VALID,345,VALID,0.512109,
2010-12-03, 01:09:05,VALID,1000.53,VALID,0,INVALID,163.54,VALID,0,VALID,25.8629,VALID,345,VALID,0.337891,
2010-12-03, 01:10:05,VALID,1000.52,VALID,0,INVALID,163.548,VALID,0,VALID,25.9038,VALID,345,VALID,0.558594,
2010-12-03, 01:11:05,VALID,1000.52,VALID,0,INVALID,163.571,VALID,0,VALID,25.8629,VALID,348,VALID,0.530469,
2010-12-03, 01:12:05,VALID,1000.49,VALID,0,INVALID,163.54,VALID,0,VALID,25.9038,VALID,348,VALID,0.392188,
2010-12-03, 01:13:05,VALID,1000.49,VALID,0,INVALID,163.533,VALID,0,VALID,25.8843,VALID,349,VALID,0.533594,
2010-12-03, 01:14:05,VALID,1000.51,VALID,0,INVALID,163.571,VALID,0,VALID,25.8453,VALID,349,VALID,0.417578,
2010-12-03, 01:15:05,VALID,1000.47,VALID,0,INVALID,163.571,VALID,0,VALID,25.8434,VALID,349,VALID,0.262109,
2010-12-03, 01:16:05,VALID,1000.46,VALID,0,INVALID,163.548,VALID,0,VALID,25.8259,VALID,349,VALID,0.426172,
2010-12-03, 01:17:05,VALID,1000.43,VALID,0,INVALID,163.571,VALID,0,VALID,25.8064,VALID,349,VALID,0.403516,
2010-12-03, 01:18:05,VALID,1000.42,VALID,0,INVALID,163.54,VALID,0,VALID,25.7655,VALID,352,VALID,0.49375,
2010-12-03, 01:19:05,VALID,1000.39,VALID,0,INVALID,163.586,VALID,0,VALID,25.7869,VALID,357,VALID,0.650391,
2010-12-03, 01:20:05,VALID,1000.38,VALID,0,INVALID,163.571,VALID,0,VALID,25.7869,VALID,5,VALID,0.644922,
2010-12-03, 01:21:05,VALID,1000.35,VALID,0,INVALID,163.556,VALID,0,VALID,25.7655,VALID,16,VALID,0.422656,
2010-12-03, 01:22:05,VALID,1000.35,VALID,0,INVALID,163.571,VALID,0,VALID,25.7869,VALID,16,VALID,0.241797,
2010-12-03, 01:23:05,VALID,1000.36,VALID,0,INVALID,163.556,VALID,0,VALID,25.7869,VALID,16,VALID,0.415625,
2010-12-03, 01:24:05,VALID,1000.34,VALID,0,INVALID,163.556,VALID,0,VALID,25.746,VALID,16,VALID,0.246094,
2010-12-03, 01:25:05,VALID,1000.31,VALID,0,INVALID,163.563,VALID,0,VALID,25.7674,VALID,16,VALID,0.388672,
2010-12-03, 01:26:05,VALID,1000.28,VALID,0,INVALID,163.571,VALID,0,VALID,25.7674,VALID,16,VALID,0.638281,
2010-12-03, 01:27:05,VALID,1000.27,VALID,0,INVALID,163.578,VALID,0,VALID,25.748,VALID,16,VALID,0.516016,
2010-12-03, 01:28:05,VALID,1000.28,VALID,0,INVALID,163.563,VALID,0,VALID,25.7071,VALID,21,VALID,0.5,
2010-12-03, 01:29:05,VALID,1000.25,VALID,0,INVALID,163.563,VALID,0,VALID,25.7285,VALID,21,VALID,0.549219,
2010-12-03, 01:30:05,VALID,1000.26,VALID,0,INVALID,163.563,VALID,0,VALID,25.7071,VALID,21,VALID,0.459375,
2010-12-03, 01:31:05,VALID,1000.23,VALID,0,INVALID,163.556,VALID,0,VALID,25.6876,VALID,21,VALID,0.338672,
2010-12-03, 01:32:05,VALID,1000.24,VALID,0,INVALID,163.556,VALID,0,VALID,25.6681,VALID,21,VALID,0.323828,
2010-12-03, 01:33:05,VALID,1000.21,VALID,0,INVALID,163.563,VALID,0,VALID,25.7304,VALID,21,VALID,0.403516,
2010-12-03, 01:34:05,VALID,1000.2,VALID,0,INVALID,163.586,VALID,0,VALID,25.6681,VALID,21,VALID,0.498828,
2010-12-03, 01:35:05,VALID,1000.2,VALID,0,INVALID,163.548,VALID,0,VALID,25.6915,VALID,21,VALID,0.330469,
2010-12-03, 01:36:05,VALID,1000.17,VALID,0,INVALID,163.563,VALID,0,VALID,25.6895,VALID,21,VALID,0.209375,
2010-12-03, 01:37:05,VALID,1000.16,VALID,0,INVALID,163.563,VALID,0,VALID,25.6895,VALID,21,VALID,0.144531,
2010-12-03, 01:38:05,VALID,1000.16,VALID,0,INVALID,163.571,VALID,0,VALID,25.6895,VALID,21,VALID,0.330859,
2010-12-03, 01:39:05,VALID,1000.12,VALID,0,INVALID,163.586,VALID,0,VALID,25.67,VALID,21,VALID,0.246484,
2010-12-03, 01:40:05,VALID,1000.09,VALID,0,INVALID,163.571,VALID,0,VALID,25.6486,VALID,21,VALID,0.471875,
2010-12-03, 01:41:05,VALID,1000.07,VALID,0,INVALID,163.571,VALID,0,VALID,25.6506,VALID,21,VALID,0.356641,
2010-12-03, 01:42:05,VALID,1000.05,VALID,0,INVALID,163.571,VALID,0,VALID,25.6311,VALID,21,VALID,0.390625,
2010-12-03, 01:43:05,VALID,1000.03,VALID,0,INVALID,163.563,VALID,0,VALID,25.6116,VALID,21,VALID,0.340234,
2010-12-03, 01:44:05,VALID,1000.05,VALID,0,INVALID,163.563,VALID,0,VALID,25.6116,VALID,21,VALID,0.272266,
2010-12-03, 01:45:05,VALID,1000.04,VALID,0,INVALID,163.578,VALID,0,VALID,25.6116,VALID,21,VALID,0.15625,
2010-12-03, 01:46:05,VALID,1000.04,VALID,0,INVALID,163.556,VALID,0,VALID,25.6116,VALID,21,VALID,0.260547,
2010-12-03, 01:47:05,VALID,1000.02,VALID,0,INVALID,163.563,VALID,0,VALID,25.6116,VALID,21,VALID,0.240234,
2010-12-03, 01:48:05,VALID,999.993,VALID,0,INVALID,163.563,VALID,0,VALID,25.6116,VALID,21,VALID,0.107422,
2010-12-03, 01:49:05,VALID,1000,VALID,0,INVALID,163.571,VALID,0,VALID,25.5921,VALID,21,VALID,0.387109,
2010-12-03, 01:50:05,VALID,999.993,VALID,0,INVALID,163.594,VALID,0,VALID,25.5921,VALID,21,VALID,0.523828,
2010-12-03, 01:51:05,VALID,999.953,VALID,0,INVALID,163.578,VALID,0,VALID,25.5727,VALID,21,VALID,0.590625,
2010-12-03, 01:52:05,VALID,999.949,VALID,0,INVALID,163.563,VALID,0,VALID,25.5727,VALID,21,VALID,0.509375,
2010-12-03, 01:53:05,VALID,999.943,VALID,0,INVALID,163.563,VALID,0,VALID,25.5532,VALID,21,VALID,0.583203,
2010-12-03, 01:54:05,VALID,999.903,VALID,0,INVALID,163.54,VALID,0,VALID,25.5532,VALID,21,VALID,0.472656,
2010-12-03, 01:55:05,VALID,999.838,VALID,0,INVALID,163.54,VALID,0,VALID,25.5532,VALID,21,VALID,0.505469,
2010-12-03, 01:56:05,VALID,999.805,VALID,0,INVALID,163.556,VALID,0,VALID,25.5532,VALID,21,VALID,0.580078,
2010-12-03, 01:57:05,VALID,999.796,VALID,0,INVALID,163.578,VALID,0,VALID,25.5532,VALID,21,VALID,0.45625,
2010-12-03, 01:58:05,VALID,999.777,VALID,0,INVALID,163.586,VALID,0,VALID,25.5532,VALID,21,VALID,0.518359,
2010-12-03, 01:59:05,VALID,999.762,VALID,0,INVALID,163.594,VALID,0,VALID,25.5513,VALID,21,VALID,0.397266,
2010-12-03, 02:00:05,VALID,999.762,VALID,0,INVALID,163.548,VALID,0,VALID,25.5532,VALID,21,VALID,0.385938,
2010-12-03, 02:01:05,VALID,999.8,VALID,0,INVALID,163.578,VALID,0,VALID,25.5337,VALID,20,VALID,0.430859,
2010-12-03, 02:02:05,VALID,999.826,VALID,0,INVALID,163.571,VALID,0,VALID,25.5337,VALID,20,VALID,0.461328,
2010-12-03, 02:03:05,VALID,999.872,VALID,0,INVALID,163.563,VALID,0,VALID,25.5142,VALID,20,VALID,0.467969,
2010-12-03, 02:04:05,VALID,999.93,VALID,0,INVALID,163.578,VALID,0,VALID,25.4928,VALID,20,VALID,0.403125,
2010-12-03, 02:05:05,VALID,999.981,VALID,0,INVALID,163.578,VALID,0,VALID,25.4948,VALID,20,VALID,0.259375,
2010-12-03, 02:06:05,VALID,1000.02,VALID,0,INVALID,163.586,VALID,0,VALID,25.4928,VALID,20,VALID,0.203125,
2010-12-03, 02:07:05,VALID,1000.04,VALID,0,INVALID,163.586,VALID,0,VALID,25.4948,VALID,20,VALID,0.0523437,
2010-12-03, 02:08:05,VALID,1000.03,VALID,0,INVALID,163.578,VALID,0,VALID,25.5142,VALID,20,VALID,0.101172,
2010-12-03, 02:09:05,VALID,1000.09,VALID,0,INVALID,163.578,VALID,0,VALID,25.4948,VALID,20,VALID,0,
2010-12-03, 02:10:05,VALID,1000.09,VALID,0,INVALID,163.571,VALID,0,VALID,25.4734,VALID,20,VALID,0,
2010-12-03, 02:11:05,VALID,1000.11,VALID,0,INVALID,163.578,VALID,0,VALID,25.4948,VALID,20,VALID,0,
2010-12-03, 02:12:05,VALID,1000.14,VALID,0,INVALID,163.594,VALID,0,VALID,25.4734,VALID,20,VALID,0,
2010-12-03, 02:13:05,VALID,1000.12,VALID,0,INVALID,163.601,VALID,0,VALID,25.5142,VALID,20,VALID,0,
2010-12-03, 02:14:05,VALID,1000.13,VALID,0,INVALID,163.571,VALID,0,VALID,25.4928,VALID,20,VALID,0,
2010-12-03, 02:15:05,VALID,1000.11,VALID,0,INVALID,163.594,VALID,0,VALID,25.4948,VALID,20,VALID,0,
2010-12-03, 02:16:05,VALID,1000.08,VALID,0,INVALID,163.594,VALID,0,VALID,25.4948,VALID,20,VALID,0,
2010-12-03, 02:17:05,VALID,1000.03,VALID,0,INVALID,163.586,VALID,0,VALID,25.5142,VALID,20,VALID,0,
2010-12-03, 02:18:05,VALID,1000.02,VALID,0,INVALID,163.609,VALID,0,VALID,25.4928,VALID,20,VALID,0,
2010-12-03, 02:19:05,VALID,999.995,VALID,0,INVALID,163.586,VALID,0,VALID,25.4948,VALID,20,VALID,0,
2010-12-03, 02:20:05,VALID,999.978,VALID,0,INVALID,163.556,VALID,0,VALID,25.4928,VALID,20,VALID,0,
2010-12-03, 02:21:05,VALID,999.939,VALID,0,INVALID,163.586,VALID,0,VALID,25.4948,VALID,20,VALID,0.446875,
2010-12-03, 02:22:05,VALID,999.906,VALID,0,INVALID,163.578,VALID,0,VALID,25.4948,VALID,19,VALID,0.504297,
2010-12-03, 02:23:05,VALID,999.903,VALID,0,INVALID,163.586,VALID,0,VALID,25.4948,VALID,19,VALID,0.386328,
2010-12-03, 02:24:05,VALID,999.874,VALID,0,INVALID,163.594,VALID,0,VALID,25.4753,VALID,19,VALID,0.430859,
2010-12-03, 02:25:05,VALID,999.841,VALID,0,INVALID,163.586,VALID,0,VALID,25.4344,VALID,19,VALID,0.442969,
2010-12-03, 02:26:05,VALID,999.868,VALID,0,INVALID,163.594,VALID,0,VALID,25.4344,VALID,19,VALID,0.311328,
2010-12-03, 02:27:05,VALID,999.868,VALID,0,INVALID,163.578,VALID,0,VALID,25.4363,VALID,19,VALID,0.242188,
2010-12-03, 02:28:05,VALID,999.888,VALID,0,INVALID,163.571,VALID,0,VALID,25.4383,VALID,19,VALID,0.137891,
2010-12-03, 02:29:05,VALID,999.938,VALID,0,INVALID,163.578,VALID,0,VALID,25.4169,VALID,19,VALID,0.0605469,
2010-12-03, 02:30:05,VALID,999.949,VALID,0,INVALID,163.594,VALID,0,VALID,25.4558,VALID,19,VALID,0.220313,
2010-12-03, 02:31:05,VALID,999.974,VALID,0,INVALID,163.578,VALID,0,VALID,25.4753,VALID,22,VALID,0.455859,
2010-12-03, 02:32:05,VALID,999.915,VALID,0,INVALID,163.571,VALID,0,VALID,25.4948,VALID,22,VALID,0.312109,
2010-12-03, 02:33:05,VALID,999.922,VALID,0,INVALID,163.586,VALID,0,VALID,25.4753,VALID,22,VALID,0.211328,
2010-12-03, 02:34:05,VALID,999.841,VALID,0,INVALID,163.586,VALID,0,VALID,25.4948,VALID,22,VALID,0,
2010-12-03, 02:35:05,VALID,999.77,VALID,0,INVALID,163.578,VALID,0,VALID,25.4928,VALID,22,VALID,0.165625,
2010-12-03, 02:36:05,VALID,999.739,VALID,0,INVALID,163.563,VALID,0,VALID,25.4948,VALID,22,VALID,0.503906,
2010-12-03, 02:37:05,VALID,999.757,VALID,0,INVALID,163.578,VALID,0,VALID,25.5162,VALID,22,VALID,0.447266,
2010-12-03, 02:38:05,VALID,999.774,VALID,0,INVALID,163.563,VALID,0,VALID,25.4753,VALID,22,VALID,0.5375,
2010-12-03, 02:39:05,VALID,999.821,VALID,0,INVALID,163.563,VALID,0,VALID,25.4772,VALID,22,VALID,0.175391,
2010-12-03, 02:40:05,VALID,999.859,VALID,0,INVALID,163.578,VALID,0,VALID,25.4344,VALID,22,VALID,0.349219,
2010-12-03, 02:41:05,VALID,999.896,VALID,0,INVALID,163.594,VALID,0,VALID,25.4149,VALID,22,VALID,0.253516,
2010-12-03, 02:42:05,VALID,999.892,VALID,0,INVALID,163.609,VALID,0,VALID,25.4753,VALID,22,VALID,0.296484,
2010-12-03, 02:43:05,VALID,999.915,VALID,0,INVALID,163.601,VALID,0,VALID,25.4734,VALID,22,VALID,0.201953,
2010-12-03, 02:44:05,VALID,999.872,VALID,0,INVALID,163.578,VALID,0,VALID,25.4539,VALID,22,VALID,0.128906,
2010-12-03, 02:45:05,VALID,999.917,VALID,0,INVALID,163.586,VALID,0,VALID,25.4539,VALID,22,VALID,0.414844,
2010-12-03, 02:46:05,VALID,999.925,VALID,0,INVALID,163.578,VALID,0,VALID,25.5123,VALID,82,VALID,0.616797,
2010-12-03, 02:47:05,VALID,999.976,VALID,0,INVALID,163.571,VALID,0,VALID,25.5123,VALID,130,VALID,1.15469,
2010-12-03, 02:48:05,VALID,1000.01,VALID,0,INVALID,163.578,VALID,0,VALID,25.5318,VALID,149,VALID,1.93555,
2010-12-03, 02:49:05,VALID,1000.01,VALID,0,INVALID,163.556,VALID,0,VALID,25.5727,VALID,111,VALID,2.95039,
2010-12-03, 02:50:05,VALID,999.986,VALID,0,INVALID,163.548,VALID,0,VALID,25.6486,VALID,120,VALID,1.88359,
2010-12-03, 02:51:05,VALID,999.958,VALID,0,INVALID,163.548,VALID,0,VALID,25.7071,VALID,145,VALID,1.97227,
2010-12-03, 02:52:05,VALID,999.915,VALID,0,INVALID,163.556,VALID,0,VALID,25.746,VALID,102,VALID,0.905469,
2010-12-03, 02:53:05,VALID,999.839,VALID,0,INVALID,163.563,VALID,0,VALID,25.8044,VALID,128,VALID,1.14219,
2010-12-03, 02:54:05,VALID,999.822,VALID,0,INVALID,163.563,VALID,0,VALID,25.8648,VALID,115,VALID,1.03242,
2010-12-03, 02:55:05,VALID,999.775,VALID,0,INVALID,163.548,VALID,0,VALID,25.8823,VALID,142,VALID,0.726563,
2010-12-03, 02:56:05,VALID,999.805,VALID,0,INVALID,163.578,VALID,0,VALID,25.8823,VALID,190,VALID,1.76328,
2010-12-03, 02:57:05,VALID,999.812,VALID,0,INVALID,163.548,VALID,0,VALID,25.9232,VALID,147,VALID,1.01797,
2010-12-03, 02:58:05,VALID,999.812,VALID,0,INVALID,163.556,VALID,0.100563,VALID,25.8843,VALID,129,VALID,1.16836,
2010-12-03, 02:59:04,VALID,999.835,VALID,0,INVALID,163.517,VALID,0,VALID,25.8453,VALID,130,VALID,1.36328,
2010-12-03, 03:00:04,VALID,999.844,VALID,0,INVALID,163.54,VALID,0,VALID,25.8278,VALID,126,VALID,2.02813,
2010-12-03, 03:01:04,VALID,999.825,VALID,0,INVALID,163.517,VALID,0,VALID,25.8044,VALID,101,VALID,1.03398,
2010-12-03, 03:02:04,VALID,999.798,VALID,0,INVALID,163.556,VALID,0,VALID,25.7285,VALID,101,VALID,1.42266,
2010-12-03, 03:03:04,VALID,999.746,VALID,0,VALID,100.243,VALID,0,VALID,25.748,VALID,116,VALID,1.41914,
2010-12-03, 03:04:04,VALID,999.729,VALID,0,VALID,97.6268,VALID,0,VALID,25.748,VALID,79,VALID,0.73125,
2010-12-03, 03:05:04,VALID,999.661,VALID,0,VALID,92.3171,VALID,0,VALID,25.6895,VALID,131,VALID,1.0207,
2010-12-03, 03:06:04,VALID,999.677,VALID,0,VALID,92.4544,VALID,0,VALID,25.6895,VALID,97,VALID,1.02969,
2010-12-03, 03:07:04,VALID,999.629,VALID,0,VALID,89.174,VALID,0,VALID,25.67,VALID,112,VALID,0.891797,
2010-12-03, 03:08:04,VALID,999.589,VALID,0,VALID,89.5478,VALID,0,VALID,25.6506,VALID,83,VALID,0.334766,
2010-12-03, 03:09:04,VALID,999.576,VALID,0,VALID,89.1435,VALID,0,VALID,25.5921,VALID,92,VALID,0.171484,
2010-12-03, 03:10:04,VALID,999.557,VALID,0,VALID,90.2573,VALID,0,VALID,25.5123,VALID,92,VALID,0.372656,
2010-12-03, 03:11:04,VALID,999.516,VALID,0,VALID,90.1276,VALID,0,VALID,25.4539,VALID,92,VALID,0.433594,
2010-12-03, 03:12:04,VALID,999.508,VALID,0,VALID,90.2039,VALID,0,VALID,25.3955,VALID,91,VALID,0.176172,
2010-12-03, 03:13:04,VALID,999.474,VALID,0,VALID,90.5701,VALID,0,VALID,25.339,VALID,32,VALID,0.636719,
2010-12-03, 03:14:04,VALID,999.426,VALID,0,VALID,93.3088,VALID,0,VALID,25.2592,VALID,25,VALID,0.892969,
2010-12-03, 03:15:04,VALID,999.415,VALID,0,VALID,93.2097,VALID,0,VALID,25.1832,VALID,17,VALID,0.728125,
2010-12-03, 03:16:04,VALID,999.397,VALID,0,VALID,94.293,VALID,0,VALID,25.1053,VALID,26,VALID,0.682031,
2010-12-03, 03:17:04,VALID,999.373,VALID,0,VALID,95.1093,VALID,0,VALID,25.0469,VALID,30,VALID,0.371875,
2010-12-03, 03:18:04,VALID,999.384,VALID,0,VALID,95.4068,VALID,0,VALID,24.9885,VALID,31,VALID,0.366406,
2010-12-03, 03:19:04,VALID,999.385,VALID,0,VALID,96.1392,VALID,0,VALID,24.93,VALID,77,VALID,0.660547,
2010-12-03, 03:20:04,VALID,999.341,VALID,0,VALID,94.9109,VALID,0,VALID,24.8911,VALID,94,VALID,0.822266,
2010-12-03, 03:21:04,VALID,999.312,VALID,0,VALID,93.2936,VALID,0,VALID,24.8522,VALID,103,VALID,0.714063,
2010-12-03, 03:22:04,VALID,999.295,VALID,0,VALID,94.0717,VALID,0,VALID,24.8308,VALID,111,VALID,0.572266,
2010-12-03, 03:23:04,VALID,999.289,VALID,0,VALID,96.0095,VALID,0,VALID,24.8113,VALID,117,VALID,0.516797,
2010-12-03, 03:24:04,VALID,999.279,VALID,0,VALID,97.1691,VALID,0,VALID,24.7937,VALID,118,VALID,0.550391,
2010-12-03, 03:25:04,VALID,999.279,VALID,0,VALID,98.9847,VALID,0,VALID,24.7529,VALID,118,VALID,0.191016,
2010-12-03, 03:26:04,VALID,999.278,VALID,0,VALID,99.5416,VALID,0,VALID,24.7353,VALID,53,VALID,0.617188,
2010-12-03, 03:27:04,VALID,999.313,VALID,0,INVALID,111.046,VALID,0,VALID,24.6945,VALID,19,VALID,0.796094,
2010-12-03, 03:28:04,VALID,999.327,VALID,0,INVALID,115.784,VALID,0,VALID,24.6574,VALID,21,VALID,0.666797,
2010-12-03, 03:29:04,VALID,999.355,VALID,0,INVALID,111.717,VALID,0,VALID,24.6185,VALID,24,VALID,0.321875,
2010-12-03, 03:30:04,VALID,999.371,VALID,0,INVALID,121.894,VALID,0,VALID,24.599,VALID,24,VALID,0.459766,
2010-12-03, 03:31:04,VALID,999.393,VALID,0,INVALID,117.294,VALID,0,VALID,24.5796,VALID,66,VALID,0.367969,
2010-12-03, 03:32:04,VALID,999.413,VALID,0,INVALID,122.009,VALID,0,VALID,24.4998,VALID,66,VALID,0.0949219,
2010-12-03, 03:33:04,VALID,999.437,VALID,0,INVALID,128.882,VALID,0,VALID,24.4804,VALID,66,VALID,0,
2010-12-03, 03:34:04,VALID,999.46,VALID,0,INVALID,138.174,VALID,0,VALID,24.4609,VALID,65,VALID,0.501953,
2010-12-03, 03:35:04,VALID,999.453,VALID,0,INVALID,163.624,VALID,0.100563,VALID,24.4628,VALID,62,VALID,0.599609,
2010-12-03, 03:36:04,VALID,999.472,VALID,0,INVALID,163.647,VALID,0.100563,VALID,24.4025,VALID,56,VALID,0.439453,
2010-12-03, 03:37:04,VALID,999.495,VALID,0,INVALID,163.693,VALID,0.100563,VALID,24.3441,VALID,49,VALID,0.588672,
2010-12-03, 03:38:04,VALID,999.491,VALID,0,INVALID,163.693,VALID,0,VALID,24.3052,VALID,49,VALID,0.510938,
2010-12-03, 03:39:04,VALID,999.496,VALID,0,INVALID,163.662,VALID,0,VALID,24.307,VALID,49,VALID,0.459375,
2010-12-03, 03:40:04,VALID,999.526,VALID,0,INVALID,163.685,VALID,0,VALID,24.2273,VALID,49,VALID,0.510156,
2010-12-03, 03:41:04,VALID,999.492,VALID,0,INVALID,163.662,VALID,0,VALID,24.2078,VALID,49,VALID,0.341016,
2010-12-03, 03:42:04,VALID,999.477,VALID,0,INVALID,163.662,VALID,0,VALID,24.1884,VALID,49,VALID,0.197656,